Wausau, WI

6:05 AM CST on November 24, 2017 (GMT -0600)
Wausau Downtown

Weather History for KAUW - January, 2014

Change the Weather History Date:

Sunday, January 12, 2014

  Actual Average Record
Temperature  
Mean Temperature 31 °F 14 °F  
Max Temperature 38 °F 23 °F 45 °F (1987)
Min Temperature 23 °F 6 °F -32 °F (1909)
Degree Days  
Heating Degree Days 34 51  
Month to date heating degree days 732 606  
Since 1 July heating degree days 4205 3892  
Cooling Degree Days 0 0  
Month to date cooling degree days 0 0  
Year to date cooling degree days 0 0  
Moisture  
Dew Point 24 °F    
Average Humidity 83    
Maximum Humidity 96    
Minimum Humidity 70    
Precipitation  
Precipitation 0.00 in 0.03 in 1.03 in (1960)
Month to date precipitation 0.21 0.42  
Year to date precipitation 0.21 0.42  
Snow  
Snow 0.00 in 0.40 in 3.70 in (1972)
Month to date snowfall 1.9 5.1  
Since 1 July snowfall 30.6 27.3  
Snow Depth 12.00 in    
Sea Level Pressure  
Sea Level Pressure 29.57 in    
Wind  
Wind Speed 8 mph (SSW)    
Max Wind Speed 24 mph    
Max Gust Speed 32 mph    
Visibility 8 miles    
Events      
T = Trace of Precipitation, MM = Missing Value Source: NWS Daily Summary

Daily Weather History Graph

Daily Weather History Graph

Search for Another Location

Airport or City:

Trip Planner

Search our weather history database for the weather conditions in past years. The results will help you decide how hot, cold, wet, or windy it might be!

Date:

Astronomy

Jan. 12, 2014 Rise Set
Actual Time 7:34 AM CST 4:39 PM CST
Civil Twilight 7:01 AM CST 5:12 PM CST
Nautical Twilight 6:24 AM CST 5:49 PM CST
Astronomical Twilight 5:49 AM CST 6:24 PM CST
Moon 2:08 PM CST (1/12) 4:31 AM CST (1/12)
Length of Visible Light 10h 11m
Length of Day
9h 05m
Waxing Gibbous, 90% of the Moon is Illuminated
Jan 12
Waxing Gibbous
Jan 15
Full
Jan 23
Last Quarter
Jan 30
New
Feb 6
First Quarter

Hourly Weather History & Observations

Time (CST) Temp. Windchill Dew Point Humidity Pressure Visibility Wind Dir Wind Speed Gust Speed Precip Events Conditions
12:21 AM 25.0 °F 14.2 °F 21.9 °F 88% 29.62 in 6.0 mi West 11.5 mph - N/A   Overcast
12:54 AM 24.1 °F 13.1 °F 21.9 °F 91% 29.69 in 6.0 mi WSW 11.5 mph 20.7 mph N/A   Overcast
1:54 AM 24.1 °F 13.7 °F 21.9 °F 91% 29.70 in 7.0 mi West 10.4 mph - N/A   Overcast
2:54 AM 23.0 °F 13.1 °F 21.0 °F 92% 29.70 in 7.0 mi SW 9.2 mph - N/A   Overcast
3:54 AM 23.0 °F 15.8 °F 21.9 °F 96% 29.70 in 6.0 mi SW 5.8 mph - N/A   Overcast
4:54 AM 23.0 °F 15.8 °F 21.0 °F 92% 29.68 in 7.0 mi SSW 5.8 mph - N/A   Overcast
5:54 AM 23.0 °F 13.9 °F 21.0 °F 92% 29.66 in 5.0 mi SSE 8.1 mph - N/A   Overcast
6:02 AM 23.0 °F 13.1 °F 21.0 °F 92% 29.58 in 6.0 mi SSE 9.2 mph - N/A   Overcast
6:13 AM 23.0 °F 13.9 °F 21.0 °F 92% 29.58 in 6.0 mi South 8.1 mph - N/A   Overcast
6:24 AM 23.0 °F 13.1 °F 21.9 °F 96% 29.58 in 6.0 mi South 9.2 mph - N/A   Overcast
6:54 AM 23.0 °F 14.7 °F 21.9 °F 96% 29.65 in 6.0 mi SSE 6.9 mph - N/A   Overcast
7:14 AM 23.0 °F 13.1 °F 21.9 °F 96% 29.59 in 5.0 mi SSE 9.2 mph - N/A   Overcast
7:54 AM 24.1 °F 14.4 °F 21.9 °F 91% 29.64 in 5.0 mi SSE 9.2 mph - N/A   Overcast
8:03 AM 24.1 °F 13.7 °F 21.9 °F 91% 29.58 in 5.0 mi SSE 10.4 mph - N/A   Overcast
8:54 AM 25.0 °F 13.1 °F 23.0 °F 92% 29.62 in 7.0 mi SSE 13.8 mph - N/A   Overcast
9:54 AM 28.0 °F 18.6 °F 23.0 °F 81% 29.58 in 10.0 mi SSE 10.4 mph - N/A   Overcast
10:54 AM 30.9 °F 19.8 °F 25.0 °F 79% 29.53 in 10.0 mi South 16.1 mph - N/A   Clear
11:54 AM 34.0 °F 24.2 °F 26.1 °F 73% 29.49 in 10.0 mi South 15.0 mph 28.8 mph N/A   Clear
12:54 PM 35.1 °F 25.9 °F 27.0 °F 72% 29.46 in 10.0 mi South 13.8 mph - N/A   Clear
1:54 PM 37.0 °F 29.3 °F 28.0 °F 70% 29.45 in 10.0 mi South 11.5 mph 21.9 mph N/A   Clear
2:54 PM 37.0 °F 30.4 °F 28.0 °F 70% 29.47 in 10.0 mi South 9.2 mph - N/A   Clear
3:54 PM 37.0 °F 31.6 °F 28.0 °F 70% 29.47 in 10.0 mi South 6.9 mph - N/A   Clear
4:54 PM 37.0 °F 33.3 °F 28.0 °F 70% 29.47 in 10.0 mi SSW 4.6 mph - N/A   Clear
5:54 PM 36.0 °F 33.3 °F 28.0 °F 73% 29.50 in 10.0 mi WSW 3.5 mph - N/A   Clear
6:54 PM 36.0 °F 31.1 °F 28.0 °F 73% 29.50 in 10.0 mi WSW 5.8 mph - N/A   Clear
7:54 PM 35.1 °F - 27.0 °F 72% 29.49 in 10.0 mi Calm Calm - N/A   Partly Cloudy
8:54 PM 35.1 °F - 28.0 °F 76% 29.51 in 10.0 mi Calm Calm - N/A   Mostly Cloudy
9:54 PM 36.0 °F 29.0 °F 28.0 °F 73% 29.51 in 10.0 mi SW 9.2 mph - N/A   Scattered Clouds
10:54 PM 35.1 °F 31.0 °F 28.0 °F 76% 29.50 in 10.0 mi SSW 4.6 mph - N/A   Overcast
11:54 PM 34.0 °F 28.0 °F 28.0 °F 79% 29.49 in 10.0 mi SW 6.9 mph - N/A   Partly Cloudy